Wind_Speed
7 6 7 5 7 1 3 3 4 3 0 10 10 8 6 7 5 5 10 9 6 1 2 3 5 5 6 7 8 9 10 10 11 10 10 10 11 10 9 7 7 5 8 8 6 4 4 3 2
7 6 6 11 5 6 8 6 2 7 9 10 9 8 6 1 6 8 7 8 6 3 2 2 3 5 7 7 7 6 7 8 9 9 10 10 9 8 7 7 6 5 8 6 5 4 4 4 4
7 6 6 2 3 10 6 7 7 8 10 9 10 8 5 5 8 8 8 8 8 6 3 4 5 5 7 8 8 8 9 8 9 9 9 9 7 7 7 7 7 7 9 6 5 6 4 4 4
6 4 6 5 6 6 3 7 10 6 9 6 8 4 10 10 9 7 6 6 7 8 7 5 5 6 7 9 9 10 10 10 10 10 10 9 9 9 9 7 7 7 8 7 7 7 6 6 6
6 6 4 6 5 5 7 8 6 5 7 10 9 3 8 9 6 6 8 10 8 7 8 8 8 8 8 9 10 11 11 11 12 11 11 12 11 11 11 9 9 9 8 8 8 7 8 8 8
6 5 1 8 4 6 10 7 7 7 6 11 11 12 9 8 9 12 12 11 10 9 9 7 9 11 11 11 11 11 12 13 13 13 13 14 13 13 13 12 12 11 11 10 11 11 11 10 10
5 5 5 9 7 6 8 9 7 7 9 10 17 15 6 11 8 12 13 13 13 12 11 10 11 11 12 13 13 13 13 13 14 14 15 15 16 16 16 15 14 13 13 12 13 13 13 12 13
7 9 7 6 6 9 14 12 13 11 10 11 16 7 9 13 18 15 14 14 13 15 13 14 13 14 13 13 14 15 15 15 14 14 17 17 17 18 18 17 16 16 15 14 13 13 14 14 14
11 12 9 8 11 7 13 17 17 18 17 13 20 15 12 18 18 18 16 16 16 14 15 16 17 16 16 16 15 16 17 18 18 17 17 18 18 18 19 19 18 18 18 17 16 15 15 15 15
14 17 14 10 11 17 16 19 21 24 24 18 18 15 19 24 19 18 18 18 18 18 16 16 17 18 19 19 18 18 18 19 19 19 20 21 20 20 21 21 20 20 20 20 19 18 18 17 17
20 20 16 18 19 24 26 25 26 27 29 21 23 19 20 24 28 26 20 20 21 20 21 20 18 19 20 21 21 20 21 20 20 20 20 22 23 25 23 22 22 22 23 22 21 21 20 20 18
22 22 21 23 22 26 28 26 28 28 30 26 23 24 26 26 25 25 27 25 25 25 24 23 22 22 22 22 22 22 23 23 23 23 23 23 23 26 24 25 25 25 25 24 23 23 22 22 21
23 23 25 23 31 29 31 27 27 27 24 25 21 22 24 26 27 27 28 28 27 25 27 29 27 27 26 25 24 24 24 24 25 26 26 25 25 26 26 27 27 27 27 28 26 26 25 24 24
28 31 31 31 31 33 31 23 19 23 20 22 22 22 24 28 29 30 29 27 28 29 27 30 34 30 30 29 27 25 26 27 26 28 29 27 27 29 28 29 29 29 28 30 28 29 28 27 26
25 29 33 33 19 18 20 28 24 22 23 25 28 31 29 29 32 31 29 31 34 36 36 35 36 36 34 31 30 30 29 30 30 30 32 31 31 31 31 32 32 31 30 31 31 31 30 30 29
30 28 25 15 19 23 23 28 22 24 31 32 28 27 28 26 27 28 33 36 36 37 39 38 39 41 40 37 36 36 35 34 34 34 34 35 34 34 35 35 35 34 33 33 33 33 33 32 32
18 20 19 21 14 23 23 24 33 35 37 33 25 23 24 23 29 30 31 32 29 31 35 35 36 39 42 41 41 42 42 42 40 39 39 39 38 37 39 38 38 38 37 36 36 36 35 35 35
19 22 26 28 24 29 33 35 30 32 29 27 24 22 14 24 32 30 26 27 26 25 25 25 24 26 29 30 31 34 40 43 45 43 44 44 43 41 42 42 42 42 40 39 39 39 38 37 37
26 27 27 27 28 27 28 33 32 28 15 13 13 18 21 27 33 34 27 20 18 14 14 12 10 10 11 17 19 21 26 31 38 43 45 47 48 47 46 46 46 46 44 43 42 42 42 42 40
26 28 30 27 21 22 29 32 28 14 18 11 19 21 29 30 29 20 10 8 7 8 9 10 12 13 12 14 16 19 25 28 30 34 39 42 45 47 48 49 49 49 48 47 47 46 46 45 43
27 25 23 23 23 22 19 21 21 18 24 23 20 28 32 24 16 13 10 8 10 11 14 17 15 15 14 14 14 16 19 22 29 33 34 37 41 44 44 46 50 52 52 50 50 50 49 48 46
16 12 14 18 18 10 16 13 16 17 14 21 19 27 27 20 16 14 10 13 17 18 18 17 15 16 16 16 18 17 17 18 21 26 30 33 34 38 42 42 44 51 54 52 52 52 51 50 49
12 18 20 21 23 23 16 15 6 15 15 16 22 22 17 16 15 14 18 18 17 17 16 18 19 15 14 14 17 18 20 22 21 21 22 26 28 30 34 39 41 43 48 52 53 55 55 55 52
19 19 19 17 16 6 4 9 5 2 9 13 17 19 15 16 18 22 22 20 19 19 18 18 19 21 21 21 21 20 20 22 24 25 25 25 22 22 26 28 32 37 42 45 49 53 56 57 57
8 9 7 4 5 6 2 14 17 16 19 19 19 21 22 24 25 24 21 19 18 17 18 20 21 23 25 26 25 26 25 27 28 28 26 25 25 24 21 21 22 25 31 37 43 48 51 55 58
10 11 7 5 2 10 29 14 20 18 24 28 31 29 31 28 26 25 25 21 21 20 21 22 23 24 25 27 28 25 26 26 26 29 30 30 30 29 29 29 27 26 25 29 33 40 46 48 52
5 10 13 19 23 10 15 21 31 25 23 27 28 33 34 30 21 21 23 24 23 24 26 29 32 33 36 39 35 34 34 31 29 30 31 32 35 36 35 35 35 33 32 30 31 34 37 43 47
14 14 9 6 3 5 7 14 19 25 23 25 29 31 28 28 27 25 25 24 24 30 35 38 42 45 46 46 46 42 39 37 35 35 35 36 38 38 38 38 38 38 38 35 34 34 35 37 41
10 15 19 19 20 3 9 13 25 26 23 22 20 25 25 28 28 29 29 30 33 42 47 49 49 48 48 44 41 37 35 36 38 38 35 34 34 33 35 36 37 38 39 40 39 37 37 37 38
26 29 28 17 14 24 27 27 35 32 29 26 27 25 29 32 31 36 38 47 52 51 54 54 54 52 49 43 39 41 42 40 39 37 37 37 36 36 35 33 32 34 37 39 39 40 40 40 40
Wind_Direction
352 351 360 39 46 46 22 59 7 356 281 337 347 357 10 21 347 278 305 317 323 307 234 198 187 185 186 189 208 221 226 231 241 245 244 242 245 250 261 265 266 269 271 274 267 256 258 250 251
3 11 19 69 6 325 79 48 359 325 332 335 349 9 22 224 298 304 301 312 324 315 208 232 222 207 209 211 207 212 226 232 237 242 248 249 251 260 266 266 261 259 257 260 266 244 236 248 252
8 19 35 66 19 7 13 19 335 323 337 348 354 8 16 336 332 317 314 307 310 306 284 256 255 250 232 227 222 224 225 228 236 236 240 248 254 254 259 267 268 250 254 248 240 241 229 232 230
11 39 68 73 343 335 301 277 283 319 327 343 351 7 324 330 321 315 327 318 302 299 295 275 272 271 257 245 240 236 235 238 240 244 249 244 240 248 253 252 257 264 273 267 254 244 246 245 246
13 36 78 305 318 315 311 310 323 337 340 326 348 335 302 332 330 324 319 318 310 291 286 282 276 272 264 257 254 249 246 245 247 247 247 250 249 248 251 254 261 263 269 271 267 261 255 251 255
348 18 1 311 330 310 297 326 332 353 334 321 322 335 321 311 307 312 310 310 306 291 283 266 267 268 265 260 255 252 252 251 250 250 250 251 251 252 248 251 257 263 264 265 264 261 258 256 256
337 307 290 276 288 313 276 310 324 321 314 308 306 321 322 288 292 308 308 303 296 288 281 277 268 263 261 261 261 258 249 247 251 251 250 250 252 251 253 256 259 262 265 264 262 262 261 261 262
305 301 305 302 306 276 280 285 301 303 306 311 297 303 274 275 298 303 302 302 298 285 276 276 272 271 266 261 258 257 257 256 250 245 250 254 253 255 256 259 262 266 268 268 269 268 268 269 270
293 285 287 297 299 307 309 314 304 307 308 305 300 296 282 282 287 288 288 294 295 293 284 276 276 268 266 263 260 258 259 259 258 253 253 258 258 257 258 259 261 266 270 272 272 273 274 272 270
291 283 283 259 277 267 257 266 288 294 301 303 302 304 301 292 278 282 278 280 280 283 284 288 284 278 270 265 260 259 258 260 261 259 257 258 259 258 259 263 265 268 270 273 277 279 279 277 276
293 284 291 286 274 278 293 296 296 300 297 301 301 289 273 275 290 291 279 277 276 273 274 277 275 272 270 269 265 260 262 262 262 262 259 259 261 264 264 263 265 269 270 271 273 276 280 280 280
286 285 296 295 291 291 294 295 296 295 298 303 292 283 277 277 277 278 283 280 275 273 273 266 269 266 267 268 266 263 260 260 260 262 260 257 258 263 266 268 269 269 270 272 274 275 276 278 280
280 301 292 298 299 299 297 301 301 297 308 299 299 291 290 288 286 283 278 279 278 274 269 268 259 262 264 263 263 261 262 260 263 261 262 261 261 261 261 262 262 264 268 271 272 272 274 275 276
288 281 294 296 298 297 293 300 303 317 307 300 301 301 297 296 295 293 285 277 269 264 262 260 262 258 259 261 259 258 258 259 257 259 261 262 261 262 262 262 264 264 265 267 269 271 272 274 276
288 293 293 302 307 313 303 299 309 314 305 301 306 308 304 297 290 286 284 277 268 264 261 255 257 258 255 257 259 258 255 256 259 258 260 260 259 260 261 263 264 263 263 264 265 267 269 271 273
289 296 302 322 319 304 299 296 307 308 304 305 306 302 299 293 292 273 271 269 270 271 269 261 254 255 255 255 258 259 260 258 258 259 259 260 259 260 260 261 263 264 264 265 265 265 266 268 270
291 282 290 298 313 303 304 297 312 308 311 311 311 301 296 313 284 273 276 282 277 275 274 272 267 260 261 261 258 258 259 260 259 260 261 261 260 259 259 259 260 262 264 265 265 265 265 266 268
286 282 280 287 286 279 290 298 297 296 306 307 300 300 311 279 281 281 276 274 279 280 279 278 273 266 261 262 263 261 259 260 260 257 259 260 261 261 260 259 258 260 261 262 265 267 267 267 269
273 274 280 281 289 295 290 288 298 316 322 298 309 310 270 268 284 281 288 283 273 262 261 259 259 270 277 272 267 264 262 260 260 259 256 258 259 259 258 259 259 258 259 261 262 263 264 266 266
271 277 282 294 294 283 291 295 304 314 306 279 296 276 274 268 267 278 269 248 252 268 272 273 279 284 288 280 277 273 269 267 266 266 267 265 263 263 260 259 257 256 256 257 259 261 263 264 265
276 278 285 286 297 300 301 300 306 300 302 276 270 264 270 276 268 249 237 250 276 287 295 297 292 286 290 282 278 281 282 274 268 268 269 270 271 270 267 265 260 257 255 253 254 257 260 263 264
273 298 285 288 300 280 295 301 276 319 289 247 251 270 282 265 235 223 245 287 298 301 302 296 288 293 294 293 291 290 289 289 281 274 272 272 271 273 273 268 264 258 255 254 254 256 257 259 261
263 292 296 295 290 293 296 259 328 304 239 234 270 271 265 239 236 257 287 298 295 289 285 282 286 291 297 302 300 306 300 298 305 305 293 279 277 277 276 275 271 265 259 256 256 255 255 257 259
296 298 298 297 272 261 272 249 354 326 282 258 251 256 235 233 257 275 281 284 281 280 282 286 291 291 301 309 309 310 309 305 305 305 308 310 306 293 282 282 278 274 270 263 259 256 255 255 256
283 323 322 277 172 222 320 324 262 291 285 284 272 268 253 254 269 271 271 272 274 282 286 292 303 306 306 313 314 309 304 302 299 297 296 294 297 299 299 298 293 286 278 271 264 262 258 255 254
250 278 240 257 244 295 294 262 269 269 286 277 270 268 264 266 264 267 270 274 283 294 304 307 304 308 316 316 312 305 304 304 295 290 289 288 288 290 289 291 297 296 291 284 274 267 264 260 258
276 260 268 260 276 288 261 269 285 289 270 263 262 262 263 265 256 261 270 276 289 304 311 313 314 310 309 311 309 304 306 299 292 292 288 286 287 291 293 291 289 289 291 288 285 276 270 267 261
276 269 266 230 234 250 251 292 276 293 294 276 272 270 263 261 264 268 272 280 297 313 316 316 318 315 312 309 306 302 300 298 297 295 287 284 285 286 287 288 288 286 285 285 283 283 278 270 268
270 269 264 266 249 245 274 269 284 289 281 295 290 283 277 271 269 274 283 293 298 308 311 312 310 309 306 302 301 295 292 289 289 290 291 290 289 286 284 283 282 283 283 282 278 277 276 276 270
263 258 261 248 259 259 262 268 270 277 290 301 295 278 270 264 271 283 290 301 306 303 302 300 297 297 294 286 282 282 283 284 283 283 285 286 286 285 285 282 278 277 280 283 281 276 272 269 269
Height
3169 3168 3168 3168 3172 3170 3170 3172 3172 3172 3172 3171 3170 3170 3170 3170 3169 3172 3169 3168 3168 3167 3167 3168 3169 3170 3171 3172 3173 3174 3175 3176 3177 3178 3179 3180 3180 3181 3181 3182 3183 3183 3183 3184 3185 3185 3186 3186 3187
3168 3168 3168 3169 3171 3171 3171 3172 3172 3171 3171 3170 3170 3169 3169 3171 3169 3168 3169 3167 3167 3167 3167 3167 3168 3168 3170 3170 3171 3172 3174 3175 3176 3177 3178 3178 3179 3180 3180 3181 3181 3181 3182 3183 3183 3184 3184 3186 3187
3168 3168 3169 3170 3172 3172 3173 3173 3172 3172 3170 3170 3169 3169 3169 3169 3168 3168 3167 3166 3166 3166 3167 3167 3167 3168 3168 3169 3170 3171 3172 3173 3175 3176 3176 3177 3178 3179 3179 3180 3180 3181 3181 3181 3181 3183 3183 3184 3185
3168 3170 3171 3172 3173 3174 3173 3172 3171 3171 3170 3170 3169 3168 3168 3168 3167 3166 3166 3166 3166 3165 3165 3165 3166 3166 3167 3168 3169 3170 3171 3172 3172 3174 3175 3176 3177 3177 3178 3179 3180 3180 3179 3181 3181 3181 3182 3183 3184
3169 3169 3171 3172 3172 3173 3172 3171 3170 3170 3170 3169 3169 3169 3167 3166 3166 3165 3165 3165 3164 3164 3164 3164 3164 3164 3165 3166 3167 3168 3168 3169 3171 3172 3173 3174 3175 3176 3176 3177 3178 3178 3179 3179 3180 3180 3182 3182 3183
3168 3170 3171 3172 3172 3173 3171 3171 3170 3170 3170 3168 3168 3167 3166 3165 3165 3164 3163 3163 3162 3162 3162 3162 3163 3163 3163 3163 3164 3166 3167 3167 3168 3170 3171 3172 3173 3174 3175 3176 3177 3177 3178 3178 3179 3180 3181 3181 3182
3169 3169 3169 3170 3171 3172 3170 3170 3170 3170 3169 3169 3166 3166 3165 3163 3163 3163 3162 3161 3160 3160 3160 3160 3160 3161 3161 3161 3161 3162 3163 3165 3166 3167 3168 3169 3170 3172 3172 3174 3175 3176 3177 3177 3178 3178 3179 3179 3179
3168 3168 3168 3169 3170 3170 3168 3168 3168 3168 3168 3167 3165 3165 3163 3162 3161 3161 3160 3159 3158 3158 3158 3158 3158 3158 3159 3159 3159 3159 3160 3161 3162 3164 3165 3166 3167 3169 3170 3171 3171 3172 3174 3174 3175 3175 3176 3176 3177
3166 3167 3167 3168 3169 3170 3167 3165 3164 3165 3164 3165 3162 3162 3162 3159 3159 3159 3158 3158 3156 3155 3155 3155 3155 3155 3155 3156 3156 3157 3158 3158 3159 3160 3160 3162 3164 3165 3166 3167 3168 3169 3170 3170 3171 3172 3173 3173 3174
3163 3163 3164 3166 3166 3165 3163 3163 3162 3161 3160 3161 3159 3158 3157 3154 3155 3155 3155 3155 3154 3153 3152 3152 3152 3152 3152 3152 3153 3153 3154 3155 3156 3157 3157 3157 3158 3160 3161 3163 3164 3165 3166 3167 3167 3168 3169 3169 3170
3158 3158 3161 3161 3161 3159 3159 3159 3158 3155 3154 3156 3154 3153 3153 3151 3150 3149 3151 3150 3149 3150 3149 3149 3148 3148 3148 3149 3149 3151 3151 3152 3153 3154 3155 3155 3156 3156 3157 3159 3160 3161 3162 3163 3164 3164 3165 3165 3166
3155 3155 3156 3156 3157 3155 3154 3154 3152 3151 3149 3150 3150 3149 3147 3147 3146 3146 3144 3144 3145 3144 3144 3145 3144 3143 3143 3144 3145 3146 3147 3148 3149 3150 3151 3152 3153 3153 3155 3156 3157 3158 3158 3159 3161 3161 3161 3161 3162
3152 3152 3150 3152 3150 3151 3148 3149 3147 3145 3146 3143 3143 3144 3143 3142 3141 3140 3140 3139 3138 3139 3138 3137 3139 3139 3139 3139 3140 3141 3143 3144 3145 3145 3146 3148 3149 3150 3151 3151 3153 3154 3155 3156 3157 3157 3158 3158 3159
3149 3147 3147 3146 3145 3144 3142 3143 3141 3143 3140 3139 3139 3138 3139 3137 3135 3133 3133 3133 3133 3131 3131 3130 3130 3133 3133 3134 3135 3137 3137 3138 3140 3141 3141 3142 3144 3144 3146 3146 3148 3148 3150 3150 3152 3153 3153 3154 3154
3143 3141 3142 3143 3139 3137 3137 3137 3139 3137 3135 3134 3133 3133 3133 3132 3129 3127 3124 3123 3122 3123 3123 3123 3123 3124 3126 3128 3129 3130 3131 3132 3133 3135 3136 3136 3138 3139 3140 3141 3141 3143 3144 3145 3146 3147 3148 3149 3150
3139 3139 3137 3139 3138 3135 3134 3131 3136 3135 3132 3130 3129 3128 3125 3125 3120 3112 3115 3114 3115 3115 3115 3116 3116 3115 3118 3120 3122 3123 3124 3125 3126 3127 3129 3130 3131 3132 3133 3135 3136 3137 3138 3140 3140 3141 3142 3143 3144
3136 3133 3135 3136 3138 3133 3130 3126 3127 3126 3124 3122 3122 3120 3118 3116 3106 3107 3108 3109 3110 3109 3108 3108 3108 3110 3110 3112 3113 3115 3116 3117 3118 3119 3120 3121 3123 3125 3126 3128 3129 3129 3131 3133 3134 3134 3136 3137 3137
3132 3132 3131 3130 3133 3130 3126 3121 3122 3122 3120 3116 3114 3113 3112 3103 3102 3103 3104 3102 3102 3102 3102 3102 3101 3102 3103 3103 3104 3105 3107 3108 3108 3110 3110 3112 3114 3116 3117 3119 3121 3122 3124 3125 3126 3128 3128 3129 3130
3128 3127 3126 3126 3126 3124 3121 3116 3115 3116 3114 3111 3110 3109 3103 3099 3101 3098 3097 3097 3098 3097 3097 3097 3097 3097 3098 3098 3098 3098 3098 3099 3099 3099 3100 3101 3102 3105 3107 3109 3111 3113 3115 3118 3118 3119 3120 3120 3122
3123 3120 3119 3119 3121 3118 3114 3111 3111 3112 3110 3108 3105 3102 3097 3094 3095 3096 3097 3097 3096 3097 3096 3095 3094 3094 3094 3093 3092 3092 3092 3093 3092 3093 3093 3093 3093 3094 3096 3098 3099 3101 3104 3107 3109 3110 3111 3111 3113
3117 3116 3115 3116 3114 3113 3107 3104 3106 3105 3104 3100 3098 3098 3094 3095 3096 3095 3095 3094 3094 3093 3093 3094 3093 3091 3089 3088 3087 3087 3086 3086 3085 3085 3086 3086 3085 3084 3085 3087 3088 3090 3092 3095 3097 3099 3101 3102 3105
3113 3113 3110 3110 3108 3108 3108 3097 3097 3095 3097 3092 3095 3095 3095 3094 3093 3093 3093 3092 3090 3090 3089 3088 3087 3088 3087 3085 3083 3081 3080 3079 3077 3078 3078 3076 3076 3075 3076 3074 3075 3076 3080 3083 3086 3088 3090 3090 3093
3110 3110 3108 3107 3105 3102 3103 3100 3089 3091 3090 3090 3091 3091 3089 3089 3091 3091 3089 3088 3086 3086 3084 3084 3083 3081 3079 3078 3078 3077 3075 3073 3071 3071 3071 3070 3068 3067 3064 3065 3065 3065 3067 3070 3073 3076 3077 3078 3082
3104 3103 3102 3100 3100 3099 3096 3095 3090 3089 3089 3087 3089 3088 3088 3087 3086 3084 3084 3083 3082 3081 3080 3079 3078 3077 3077 3075 3073 3071 3070 3067 3066 3065 3063 3063 3062 3060 3058 3056 3056 3055 3056 3060 3061 3062 3063 3066 3068
3101 3100 3099 3098 3097 3094 3091 3091 3087 3088 3085 3085 3085 3085 3084 3083 3082 3081 3080 3079 3077 3077 3074 3072 3071 3070 3068 3068 3067 3065 3065 3058 3058 3058 3057 3056 3056 3054 3053 3051 3048 3048 3047 3047 3048 3049 3051 3053 3054
3095 3100 3100 3100 3094 3089 3089 3083 3082 3085 3083 3080 3078 3077 3077 3077 3077 3076 3074 3072 3070 3069 3069 3067 3065 3064 3063 3062 3061 3061 3057 3052 3053 3050 3049 3048 3047 3046 3045 3044 3043 3041 3039 3037 3037 3037 3038 3040 3042
3093 3094 3095 3093 3090 3087 3080 3078 3078 3078 3075 3074 3072 3071 3071 3069 3069 3069 3067 3064 3062 3061 3059 3059 3057 3056 3055 3055 3052 3051 3044 3045 3046 3042 3042 3041 3040 3038 3036 3034 3033 3033 3032 3030 3028 3027 3027 3027 3028
3089 3089 3091 3089 3089 3086 3074 3073 3071 3073 3070 3066 3065 3067 3066 3064 3062 3059 3057 3056 3054 3054 3053 3051 3047 3047 3045 3043 3041 3038 3035 3035 3033 3030 3032 3031 3030 3029 3027 3025 3024 3023 3021 3020 3019 3018 3017 3015 3016
3085 3084 3085 3085 3082 3078 3076 3070 3068 3067 3067 3063 3062 3062 3061 3061 3058 3054 3051 3050 3049 3047 3046 3046 3043 3039 3037 3034 3031 3029 3027 3026 3022 3020 3020 3018 3017 3017 3016 3015 3013 3012 3010 3009 3008 3007 3007 3005 3005
3077 3077 3078 3077 3072 3072 3069 3067 3065 3063 3062 3059 3058 3057 3054 3051 3048 3048 3045 3043 3043 3041 3039 3037 3033 3029 3027 3026 3023 3019 3020 3017 3014 3012 3011 3009 3007 3006 3005 3004 3003 3001 2999 2998 2996 2996 2994 2994 2994